Location: Camps Bay
(33.9517°S, 18.3844°E)
Time: 21:04:40
(UTC+00:00)

STARLINK-1039 - Pass Details

Date: 18 January 2020
Orbit: 548 x 551 km, 53.0° (Epoch: 28 February)

Event Time Altitude Azimuth Distance (km) Brightness Sun altitude
Rises 02:54:25 0° 223° (SW) 2,743 7.1 -11.4°
Reaches altitude 10° 02:56:41 10° 220° (SW) 1,844 6.2 -11.0°
Maximum altitude 03:00:52 70° 136° (SE) 593 4.0 -10.3°
Drops below altitude 10° 03:05:01 10° 52° (NE) 1,825 6.5 -9.6°
Sets 03:07:14 0° 49° (NE) 2,712 7.4 -9.2°
